Location: SE Lincoln, NE
(40.7805°N, 96.6275°W)
Time: 05:08:50
(UTC-05:00)

USA 245 - Pass Details

Date: 15 May 2021
Orbit: 265 x 982 km, 97.9° (Epoch: 18 June)

Event Time Altitude Azimuth Distance (km) Brightness Sun altitude
Exits shadow 22:30:18 32° 18° (NNE) 496 3.3 -17.9°
Drops below altitude 10° 22:31:48 10° 358° (N) 1,114 5.6 -18.1°
Sets 22:33:43 0° 352° (N) 1,986 7.1 -18.4°
